Regional Weather Roundup
Issued by NWS

Home | Current Version | Previous Version | Text Only | Print | Product List | Glossary On
Versions: 1 2 3 4 5 6 7 8 9 10 11 12 13 14 15 16 17 18 19 20 21 22 23 24 25 26 27 28 29 30 31 32 33 34 35 36 37 38 39 40 41 42 43 44 45 46 47 48 49 50
000
ASUS46 KPQR 310110
RWROR

OREGON REGIONAL WEATHER ROUNDUP
NATIONAL WEATHER SERVICE PORTLAND OR
600 PM PDT SUN AUG 30 2015

NOTE: "FAIR" INDICATES FEW OR NO CLOUDS BELOW 12,000 FEET WITH
NO SIGNIFICANT WEATHER AND/OR OBSTRUCTIONS TO VISIBILITY.

ORZ001>013-310200-
NORTHWEST OREGON


CITY           SKY/WX    TMP DP  RH WIND       PRES   REMARKS
ASTORIA        MOSUNNY   65  56  72 SW13      30.01F
NEWPORT        MOSUNNY   64  59  82 S12       30.10S
PORTLAND       PTSUNNY   71  49  45 SW13      30.02R
VANCOUVER WA   CLOUDY    71  48  43 W14       30.01S
SCAPPOOSE      SUNNY     70  47  43 SW12      30.01S
HILLSBORO      PTSUNNY   69  49  48 W7        30.02S
AURORA         CLOUDY    69  50  50 SW7       30.04S
MCMINNVILLE    PTSUNNY   70  49  47 W15       30.04S
SALEM          PTSUNNY   71  49  45 W13       30.04S
CORVALLIS      CLOUDY    70  50  49 W10       30.08R
EUGENE         PTSUNNY   68  52  56 W9        30.08R
$$

ORZ021-028-310200-
SOUTHWEST OREGON


CITY           SKY/WX    TMP DP  RH WIND       PRES   REMARKS
NORTH BEND     PTSUNNY   68  63  83 W13       30.10S
BROOKINGS      SUNNY     67  62  84 VRB3      30.11S
ROSEBURG       PTSUNNY   69  53  56 VRB5      30.08R
SEXTON SUMMIT  MOSUNNY   53  46  77 VRB3      30.14S
MEDFORD        MOSUNNY   73  47  39 NW14      30.06S
$$

ORZ014>016-041-310200-
COLUMBIA GORGE


CITY           SKY/WX    TMP DP  RH WIND       PRES   REMARKS
TROUTDALE      CLOUDY    70  49  47 SW14      30.02S
THE DALLES     PTSUNNY   67  51  56 NW15G22   29.99F
$$

ORZ029>031-041-044-049-050-061>064-502-503-505>511-310200-
EASTERN OREGON


CITY           SKY/WX    TMP DP  RH WIND       PRES   REMARKS
REDMOND        PTSUNNY   60  44  55 NW12      30.07R
BEND           SUNNY     61  43  51 NW12      30.08S
PRINEVILLE     MOSUNNY   61  43  51 W16       30.07S
KLAMATH FALLS  SUNNY     68  43  40 N13G18    30.07F
LAKEVIEW       MOSUNNY   72  34  25 W13       30.07S
HERMISTON      MOSUNNY   74  47  38 W18G24    29.96R
PENDLETON      MOSUNNY   71  43  36 W14       29.97F
JOHN DAY       CLOUDY    64  47  55 NW3       30.05S
MEACHAM        PTSUNNY   59  44  57 CALM      30.06R
LA GRANDE      MOSUNNY   63  43  48 SE9       30.03S
BAKER CITY     MOSUNNY   64  45  49 N9        30.05R
BURNS          FAIR      70  36  28 W18       30.05R
ROME             N/A     80  23  12 W12       29.98S
ONTARIO        SUNNY     76  42  29 NW20      29.95R
$$


USA.gov is the U.S. government's official web portal to all federal, state and local government web resources and services.